スペースウォッチ彗星

283P/Spacewatch (2013)

English version
Home page
Updated on February 20, 2021

---------------------------------------------------------------------

・ プロフィール

符号 283P/2013 EV9
発見日 2013年3月2日
発見光度 19.2等
発見者 T. H. Bressi (Spacewatch)

・ 写真集

・ 軌道要素

Epoch 2013 Apr. 18.0 TT = JDT 2456400.5                                         
T 2013 Apr. 7.17237 TT                                  Rudenko                 
q   2.1250920            (2000.0)            P               Q                  
n   0.11735861     Peri.   22.10835     -0.99446859     +0.06757341             
a   4.1316742      Node   161.22343     -0.08035578     -0.98247963             
e   0.4856584      Incl.   14.46689     +0.06764006     -0.17368828             
P   8.40                                                                        
From 110 observations 1996 Feb. 17-2013 Aug. 8, mean residual 0".6.             

・ 光度変化

        m1 = 11.0 + 5 logΔ + 20.0 log r(t - 100)

---------------------------------------------------------------------

軌道要素はM.P.E.C. 2021-B143に掲載されたものです。
光度グラフはComet for Windowsで作成したものです。

---------------------------------------------------------------------

Copyright(C) Seiichi Yoshida (comet@aerith.net). All rights reserved.